This is the latest recevied weather packets stored in our database for station/object VK2OB. If no packets are shown the sender has not sent any weather packets the latest 10 day(s).
| Time | Temp. | Humidity | Pressure | Rain* | Wind** | Luminosity | Snow |
|---|---|---|---|---|---|---|---|
| 1777847968 | 19.44° C | 82% | 1017.8 hPa | 0 mm | - | - | - |
| 1777847669 | 18.89° C | 84% | 1017.7 hPa | 0 mm | - | - | - |
| 1777847370 | 18.89° C | 86% | 1017.7 hPa | 0 mm | - | - | - |
| 1777847071 | 18.33° C | 87% | 1017.7 hPa | 0 mm | - | - | - |
| 1777846772 | 18.33° C | 88% | 1017.7 hPa | 0 mm | - | - | - |
| 1777846473 | 17.78° C | 88% | 1017.7 hPa | 0 mm | - | - | - |
| 1777846174 | 17.78° C | 89% | 1017.7 hPa | 0 mm | - | - | - |
| 1777845875 | 17.78° C | 90% | 1017.8 hPa | 0 mm | - | - | - |
| 1777845576 | 17.22° C | 90% | 1017.7 hPa | 0 mm | - | - | - |
| 1777845277 | 17.22° C | 91% | 1017.8 hPa | 0 mm | - | - | - |
| 1777844978 | 16.67° C | 92% | 1017.7 hPa | 0 mm | - | - | - |
| 1777844679 | 16.67° C | 92% | 1017.6 hPa | 0 mm | - | - | - |
| 1777844380 | 16.67° C | 92% | 1017.7 hPa | 0 mm | - | - | - |
| 1777844081 | 16.67° C | 92% | 1017.5 hPa | 0 mm | - | - | - |
| 1777843782 | 16.11° C | 92% | 1017.4 hPa | 0 mm | - | - | - |
| 1777843483 | 16.11° C | 92% | 1017.4 hPa | 0 mm | - | - | - |
| 1777843184 | 16.11° C | 92% | 1017.3 hPa | 0 mm | - | - | - |
| 1777842885 | 16.11° C | 92% | 1017.2 hPa | 0 mm | - | - | - |
| 1777842586 | 16.11° C | 92% | 1017.1 hPa | 0 mm | - | - | - |
| 1777842287 | 15.56° C | 92% | 1017 hPa | 0 mm | - | - | - |
| 1777841988 | 15.56° C | 92% | 1017 hPa | 0 mm | - | - | - |
| 1777841689 | 15.56° C | 92% | 1017 hPa | 0 mm | - | - | - |
| 1777841390 | 15.56° C | 92% | 1017 hPa | 0 mm | - | - | - |
| 1777841091 | 16.11° C | 91% | 1016.9 hPa | 0 mm | - | - | - |
| 1777840792 | 16.11° C | 90% | 1016.8 hPa | 0 mm | - | - | - |
* Rain latest hour (hover to see other rain measurements)
** Current wind speed in m/s (hover to see current wind gust speed)